Tracking 29606 objects as of 19-Sep-2024
HD Live streaming from Space Station
objects crossing your sky now

USA 229 DEB

Track USA 229 DEB now!
10-day predictions
USA 229 DEB is classified as:


NORAD ID: 37391
Int'l Code: 2011-014B
Perigee: 888.0 km
Apogee: 1,337.8 km
Inclination: 63.4 °
Period: 107.4 minutes
Semi major axis: 7483 km
RCS: Unknown
Launch date: April 15, 2011
Source: United States (US)
Launch site: AIR FORCE WESTERN TEST RANGE (AFWTR)

Note: This is SATELLITE DEBRIS
Your satellite tracking list
Your tracking list is empty




NASA's NSSDC Master Catalog

Two Line Element Set (TLE):
1 37391U 11014B   24244.80576633 0.00000604  00000-0  83706-3 0    04
2 37391  63.4252 151.4590 0300499 356.8275   3.1247 13.40946767    07
Source of the keplerian elements: McCants